Temperature
8 10 10 9 9 9 9 10 9 9 7 7 7 6 5 3 3 3 2 1 1 1 1 1 2 2 3 3 4 4 4 5 5 6 6 6 6 6 7 7 7 8 8 8
10 9 8 7 7 8 9 9 9 7 6 7 6 6 5 3 2 2 1 1 0 0 0 1 1 1 2 2 3 3 3 4 4 4 5 5 5 5 6 6 7 7 7 7
9 7 7 7 7 8 8 8 8 7 6 6 6 7 5 3 2 1 1 0 0 -0 -0 -0 -0 0 1 1 2 2 2 3 3 3 4 4 4 5 5 6 6 6 6 6
7 6 6 7 7 7 8 7 6 6 7 8 6 8 7 4 3 2 1 0 -0 -1 -1 -1 -1 -0 -0 0 1 1 2 2 2 3 3 3 3 4 4 5 5 5 5 6
7 6 6 6 6 6 6 5 6 6 7 7 6 6 8 4 3 3 1 0 -1 -1 -1 -1 -1 -1 -1 -0 0 1 1 1 2 2 2 2 3 3 3 4 4 5 5 5
6 5 5 5 5 5 5 5 5 5 6 6 6 6 8 5 3 3 1 0 -1 -2 -2 -2 -2 -1 -1 -1 -1 -0 0 1 1 1 1 2 2 2 2 3 3 4 4 4
6 5 5 4 5 5 5 7 7 7 7 7 5 5 6 3 2 2 1 -1 -1 -2 -2 -2 -2 -2 -2 -1 -1 -1 -0 -0 0 0 1 1 1 1 2 2 2 2 3 3
7 6 5 5 5 5 5 6 6 7 7 7 4 5 5 2 0 -0 -1 -1 -2 -2 -2 -3 -3 -2 -2 -2 -2 -2 -1 -1 -1 -0 -0 0 0 0 1 1 1 2 2 2
6 6 4 4 4 5 5 5 5 5 4 4 6 5 3 1 0 -0 -1 -2 -2 -3 -3 -3 -3 -3 -3 -2 -2 -2 -2 -2 -1 -1 -1 -1 -1 -0 -0 0 1 1 1 1
5 5 4 3 4 3 4 4 4 4 4 5 6 5 5 1 0 -0 -1 -2 -3 -3 -3 -3 -3 -3 -3 -3 -3 -3 -3 -2 -2 -2 -2 -2 -1 -1 -1 -0 0 0 0 0
4 4 4 4 4 4 3 3 4 4 4 4 5 5 2 1 0 -1 -1 -2 -3 -4 -4 -4 -4 -4 -3 -3 -3 -3 -3 -3 -3 -2 -2 -2 -2 -1 -1 -1 -1 -0 -0 -0
3 4 4 4 2 2 3 3 3 4 3 3 3 4 0 -0 -1 -2 -2 -3 -4 -4 -4 -4 -4 -4 -4 -4 -4 -4 -4 -3 -3 -3 -3 -3 -2 -2 -2 -2 -1 -1 -1 -1
2 3 4 4 3 2 2 2 2 2 2 2 2 3 -1 -1 -2 -2 -3 -3 -4 -5 -5 -5 -5 -5 -5 -4 -4 -4 -4 -4 -4 -4 -4 -3 -3 -3 -2 -2 -2 -2 -1 -1
2 2 3 5 4 2 2 1 1 1 1 2 2 2 0 -1 -1 -2 -3 -4 -4 -5 -5 -5 -5 -5 -5 -5 -5 -5 -5 -5 -5 -4 -4 -4 -4 -3 -3 -3 -3 -2 -2 -2
2 2 2 1 1 1 1 1 1 0 1 1 2 0 0 -1 -2 -3 -4 -4 -5 -5 -6 -6 -6 -6 -6 -6 -5 -5 -5 -5 -5 -5 -5 -5 -4 -4 -4 -4 -3 -3 -3 -2
1 1 -0 -0 -0 -1 -1 -0 0 -0 -0 -0 -0 -1 -1 -2 -3 -4 -4 -5 -5 -6 -6 -6 -7 -7 -7 -7 -6 -6 -6 -6 -6 -6 -5 -5 -5 -5 -5 -4 -4 -4 -3 -3
-0 -0 -0 1 -1 -1 0 -0 -1 -1 -2 -1 -1 -1 -2 -3 -4 -4 -5 -5 -6 -6 -6 -7 -7 -7 -7 -7 -7 -7 -7 -6 -6 -6 -6 -6 -6 -6 -5 -5 -5 -5 -4 -4
-1 -1 -0 -0 -1 -1 1 -2 -2 -2 -3 -3 -3 -3 -4 -4 -5 -5 -6 -6 -6 -7 -7 -7 -7 -8 -7 -7 -7 -7 -7 -7 -7 -7 -7 -7 -6 -6 -6 -6 -6 -6 -5 -5
-2 -1 -1 -1 -0 0 -1 -3 -3 -3 -3 -3 -4 -4 -5 -6 -6 -5 -6 -6 -7 -7 -7 -8 -8 -8 -8 -8 -8 -8 -8 -7 -7 -7 -7 -7 -7 -7 -7 -7 -6 -6 -6 -6
-3 -2 -1 -2 -1 0 0 -3 -5 -3 -3 -4 -5 -5 -5 -6 -4 -4 -6 -7 -7 -8 -8 -8 -8 -8 -8 -8 -8 -8 -8 -8 -8 -8 -8 -8 -8 -8 -8 -7 -7 -7 -7 -6
-3 -3 -2 -2 -1 -0 -2 -5 -4 -2 -2 -4 -5 -5 -6 -6 -5 -6 -7 -7 -8 -8 -8 -8 -8 -9 -9 -9 -9 -9 -9 -9 -9 -8 -8 -8 -8 -8 -8 -8 -8 -7 -7 -7
-2 -2 -3 -3 -2 -1 -4 -5 -3 -3 -4 -5 -5 -6 -6 -7 -7 -7 -8 -8 -8 -8 -8 -9 -9 -9 -9 -9 -9 -9 -9 -9 -9 -9 -9 -8 -8 -8 -8 -8 -8 -8 -7 -7
-3 -3 -2 -3 -2 -4 -5 -5 -5 -5 -5 -6 -6 -6 -7 -7 -8 -8 -8 -8 -9 -9 -9 -9 -9 -9 -9 -9 -10 -10 -10 -9 -9 -9 -9 -9 -9 -9 -9 -8 -8 -8 -8 -8
-4 -6 -5 -5 -4 -5 -6 -6 -5 -6 -6 -6 -6 -7 -7 -8 -8 -8 -8 -9 -9 -9 -9 -9 -10 -10 -10 -10 -10 -10 -10 -10 -10 -10 -9 -9 -9 -9 -9 -9 -9 -9 -8 -8
-4 -6 -5 -5 -5 -6 -6 -6 -6 -6 -6 -7 -7 -7 -8 -8 -8 -9 -9 -9 -9 -10 -10 -10 -10 -10 -10 -10 -10 -10 -10 -10 -10 -10 -10 -10 -10 -10 -10 -9 -9 -9 -9 -9
-6 -6 -5 -3 -4 -5 -5 -6 -6 -7 -7 -7 -8 -8 -8 -9 -9 -9 -9 -9 -10 -10 -10 -10 -10 -11 -11 -11 -10 -10 -11 -11 -11 -11 -10 -11 -11 -10 -10 -10 -9 -9 -9 -9
Wind_Speed
3 3 2 1 1 1 1 3 4 3 2 3 4 4 2 1 1 2 3 4 6 7 7 8 9 9 9 9 9 9 9 9 8 6 5 4 4 4 4 4 4 3 3 3
3 2 2 2 1 1 1 3 3 2 2 3 4 5 3 2 1 1 2 4 5 6 8 9 9 10 10 10 10 9 9 8 8 6 6 5 5 4 4 5 5 4 4 4
3 2 1 1 1 0 2 4 4 4 4 2 4 6 6 3 2 1 2 3 4 6 7 8 9 10 10 10 10 9 9 8 8 8 6 5 4 4 4 5 4 5 5 4
3 2 1 1 1 3 3 3 4 4 4 3 3 6 5 5 3 1 1 3 4 5 6 7 8 9 10 10 9 9 8 8 8 8 6 7 5 5 6 6 5 6 5 5
2 1 1 1 2 2 2 3 3 4 5 5 5 6 3 4 4 3 2 2 3 4 5 6 7 8 9 9 8 8 8 8 8 8 7 6 6 6 6 6 7 6 5 5
2 1 1 1 2 0 1 0 1 2 3 5 4 6 4 3 3 3 2 2 3 4 5 6 6 7 8 8 8 8 9 8 8 8 7 7 8 8 8 7 7 6 4 5
1 1 1 1 0 1 1 2 2 3 3 4 2 5 4 1 0 1 2 2 3 3 4 5 7 7 8 9 9 9 9 9 9 9 8 8 8 8 8 8 7 7 5 5
2 2 1 1 1 1 1 2 2 4 5 4 3 6 1 2 1 1 1 2 3 4 4 5 6 7 7 8 8 8 9 9 10 9 9 8 8 7 7 8 7 7 6 6
2 1 2 2 2 1 2 2 1 2 3 6 6 4 2 2 1 1 2 3 4 4 5 6 6 6 7 7 8 8 8 9 9 9 9 9 8 8 8 8 7 6 6 6
1 2 1 1 1 2 1 2 2 3 4 6 7 6 3 3 3 2 3 4 4 5 5 6 6 6 6 7 7 7 8 8 9 9 9 8 9 9 8 8 8 8 8 8
1 2 1 1 3 3 3 3 3 3 4 5 6 4 1 2 2 3 4 4 5 5 6 6 6 7 7 7 7 7 8 9 9 9 10 10 10 10 9 8 8 8 8 8
1 2 3 2 1 2 4 4 5 4 5 5 6 5 3 0 1 3 4 4 5 6 6 6 7 7 7 8 8 7 8 9 9 9 10 10 10 10 9 9 9 9 8 8
3 3 2 2 2 2 3 4 5 4 3 6 7 6 2 1 3 4 5 5 5 6 6 6 7 7 8 8 9 8 8 9 10 10 10 10 10 10 10 10 9 9 8 8
2 4 6 6 3 2 4 5 6 6 6 8 11 11 6 6 7 7 6 6 6 6 6 7 8 8 9 9 9 9 9 9 10 10 10 11 11 10 10 10 9 9 9 8
2 4 5 7 5 5 8 9 9 11 12 11 11 11 11 8 7 7 6 6 6 7 7 8 9 9 10 11 11 10 10 10 10 10 11 11 11 11 10 10 10 9 9 9
2 3 2 5 4 5 9 11 11 12 12 13 14 13 8 5 5 5 6 6 7 8 8 9 10 10 11 11 11 11 11 11 10 10 11 11 11 11 10 10 10 10 9 9
3 3 3 4 2 5 9 8 9 6 7 7 10 8 4 5 6 6 6 6 7 8 9 9 10 11 11 11 11 12 11 11 11 11 11 11 11 11 11 10 10 10 10 10
4 4 3 3 3 7 1 2 3 6 6 7 7 6 6 6 7 6 6 6 7 8 9 10 10 11 11 11 11 11 11 11 11 11 11 11 11 11 11 11 10 10 9 9
4 5 3 3 5 8 3 2 3 4 5 5 6 6 5 4 5 5 3 5 7 9 9 10 10 11 11 11 11 11 11 11 11 11 12 12 11 12 11 11 11 10 10 10
2 3 4 4 5 6 1 3 2 2 4 3 4 4 3 3 5 5 4 7 8 9 9 9 10 10 10 11 10 11 11 11 12 12 13 12 12 12 11 11 11 10 9 10
4 4 7 8 7 7 0 3 4 4 2 2 4 4 4 4 6 7 7 8 9 9 9 9 9 9 10 10 10 11 11 11 12 13 13 12 11 11 11 11 10 10 9 9
6 6 6 6 7 6 5 6 5 3 1 2 3 4 5 7 7 7 8 8 9 9 9 9 9 9 10 10 10 11 12 12 13 13 12 11 11 10 10 10 10 9 9 8
7 6 4 7 6 1 6 5 2 1 2 3 3 4 5 6 7 8 8 8 9 9 9 8 9 10 10 10 10 11 12 13 13 13 12 12 12 10 10 9 9 9 8 7
4 3 4 5 7 5 5 5 4 4 4 4 4 4 5 6 8 8 8 8 8 8 8 9 9 10 11 11 11 11 12 12 12 13 12 11 11 10 10 8 7 7 7 7
4 6 5 7 6 4 5 7 6 4 4 4 4 4 5 6 7 8 8 8 8 8 8 8 8 10 11 12 12 12 12 12 12 12 11 11 10 10 9 8 8 8 8 8
5 6 6 6 4 4 3 3 3 4 4 4 4 4 5 5 7 7 7 7 7 8 8 8 9 10 11 11 12 12 11 11 11 11 10 9 9 9 8 8 9 10 10 12
Wind_Direction
42 75 75 41 327 337 217 236 261 281 330 288 243 249 237 145 61 40 28 21 19 13 5 6 5 4 3 3 1 358 357 356 353 346 338 324 321 316 319 316 302 292 287 276
113 71 17 31 70 109 211 247 276 283 324 284 259 258 216 173 139 42 21 13 11 5 5 6 5 5 4 1 358 356 356 354 352 346 335 321 311 302 304 318 308 292 283 275
116 69 32 99 84 252 259 268 278 287 308 240 269 245 198 191 171 81 23 9 6 4 0 360 1 1 1 0 356 352 351 351 351 347 340 334 325 311 310 312 304 303 290 273
85 46 65 82 353 283 267 297 278 264 268 255 251 276 199 192 196 243 345 360 0 358 357 357 357 356 356 354 351 350 348 351 353 349 345 341 329 313 307 309 305 301 292 274
100 40 35 334 321 287 303 319 274 255 254 264 234 258 236 176 231 252 277 332 351 353 351 351 352 350 351 350 349 349 348 351 351 346 340 333 323 313 308 309 308 301 293 278
80 49 5 347 352 357 343 294 172 201 227 251 230 238 259 200 243 251 260 308 335 343 344 344 347 349 350 352 352 351 351 347 345 341 336 330 320 317 313 311 308 302 294 286
109 107 43 11 75 94 354 284 272 252 239 253 170 241 263 89 344 273 278 307 327 334 338 339 342 344 346 350 352 351 350 347 344 339 336 330 323 316 312 306 303 304 297 290
224 233 110 26 298 247 221 257 262 278 277 280 234 247 253 102 53 344 302 310 324 330 333 333 334 335 337 341 344 346 346 343 342 339 334 328 323 317 312 309 305 300 295 291
230 231 56 24 4 244 186 204 297 273 283 274 254 251 228 181 297 318 317 323 324 328 332 332 328 330 330 333 336 337 337 336 335 334 332 327 325 319 312 309 307 301 298 298
213 243 253 3 156 51 345 154 181 226 270 271 269 260 261 219 262 292 304 307 316 319 323 326 327 324 325 325 325 331 332 330 328 330 328 323 320 319 316 312 311 303 301 298
222 222 214 202 215 217 164 178 213 227 254 267 278 274 44 234 243 269 287 297 305 314 318 318 320 322 323 327 326 329 329 329 327 327 323 321 321 320 318 316 312 306 301 298
181 222 244 235 75 330 226 219 207 236 242 240 269 274 88 271 266 278 292 300 306 310 315 317 320 323 324 329 328 326 327 325 324 322 319 317 317 317 317 314 313 310 303 298
168 200 254 223 191 188 216 216 219 236 246 239 250 264 96 332 303 298 302 307 312 313 320 324 326 329 327 326 327 326 324 322 321 319 316 315 316 316 315 314 313 311 307 302
177 222 238 264 296 199 231 227 214 215 237 251 249 267 281 295 300 306 307 307 310 315 320 324 326 327 327 326 323 322 321 321 320 318 315 314 314 313 312 312 310 309 307 303
207 242 246 267 273 255 254 252 233 228 240 254 268 271 284 290 289 294 296 303 310 317 323 324 325 324 324 324 323 320 319 320 320 317 314 312 312 311 310 309 308 309 309 306
208 237 250 264 248 260 265 259 246 243 247 252 265 275 291 296 284 287 296 305 309 314 317 319 321 322 322 321 320 318 317 318 318 314 311 311 310 309 308 309 309 309 308 306
189 195 230 262 294 289 264 246 224 222 227 239 254 274 300 295 292 294 298 301 304 309 312 315 317 317 318 318 317 316 315 314 314 312 310 309 309 308 307 307 306 304 304 305
186 186 226 275 284 249 265 87 204 221 243 238 254 275 282 289 296 291 289 293 302 307 310 312 314 314 315 316 316 314 314 314 313 311 311 312 310 308 307 304 302 303 302 300
202 193 212 232 259 271 264 197 191 222 264 238 244 267 287 307 301 283 296 304 303 304 305 306 308 309 311 314 315 315 315 315 314 312 312 312 310 306 304 301 301 300 300 298
139 194 216 217 246 259 238 127 146 202 265 200 214 247 274 303 294 306 324 317 309 307 306 307 309 310 312 315 317 316 315 315 314 313 311 310 308 304 300 297 297 297 295 294
172 194 218 229 243 263 187 155 170 227 293 151 212 237 246 256 276 302 307 307 307 307 309 310 310 310 312 316 317 314 314 313 313 311 309 308 307 304 302 299 297 295 294 292
191 192 204 208 227 249 146 158 201 246 66 209 238 248 257 270 286 294 298 303 307 310 312 313 312 311 315 318 317 314 313 313 314 312 311 310 309 307 304 302 300 297 293 291
210 209 206 209 228 342 173 201 223 199 226 248 256 262 265 274 285 293 296 301 305 307 310 312 311 311 316 320 319 313 313 315 314 312 312 311 309 307 305 302 301 299 296 291
212 204 219 245 252 242 230 239 240 236 250 265 267 270 268 271 282 291 296 301 305 307 309 313 314 314 317 322 319 314 314 316 315 313 313 312 310 310 310 305 301 299 298 295
204 181 211 244 261 271 242 228 235 245 253 265 272 270 268 272 280 287 293 299 304 307 310 311 311 311 314 318 318 318 319 318 316 314 313 312 310 308 309 306 301 298 293 294
196 196 207 241 228 225 252 226 215 231 248 257 267 276 277 272 278 287 292 298 302 305 309 310 310 311 313 315 316 318 320 318 316 314 315 313 311 310 309 309 308 304 299 302
Height
1539 1539 1540 1542 1543 1542 1541 1540 1540 1543 1548 1547 1544 1546 1549 1552 1552 1551 1550 1549 1547 1546 1544 1542 1539 1537 1535 1533 1531 1529 1528 1526 1525 1524 1523 1523 1522 1522 1521 1522 1522 1522 1522 1523
1539 1542 1546 1547 1546 1544 1542 1541 1541 1545 1548 1546 1545 1545 1548 1551 1551 1551 1550 1549 1547 1545 1543 1540 1538 1536 1533 1531 1529 1527 1526 1524 1523 1522 1521 1520 1519 1518 1518 1517 1518 1518 1518 1519
1539 1548 1548 1547 1546 1545 1543 1542 1542 1544 1547 1547 1545 1538 1544 1549 1550 1551 1550 1549 1547 1545 1542 1540 1537 1535 1533 1530 1528 1526 1524 1522 1521 1519 1518 1517 1516 1515 1514 1514 1514 1514 1514 1514
1545 1549 1549 1547 1547 1545 1542 1546 1546 1546 1543 1537 1543 1530 1534 1543 1547 1548 1548 1547 1546 1544 1542 1540 1537 1534 1531 1529 1527 1524 1522 1521 1519 1517 1516 1515 1513 1512 1510 1510 1509 1509 1509 1510
1547 1549 1549 1548 1548 1548 1546 1548 1547 1545 1541 1540 1541 1538 1527 1541 1542 1544 1546 1546 1545 1543 1541 1539 1536 1534 1531 1528 1526 1523 1521 1519 1517 1515 1513 1512 1510 1508 1507 1506 1505 1505 1505 1505
1549 1551 1551 1550 1550 1550 1549 1548 1546 1545 1542 1538 1536 1537 1523 1535 1539 1541 1544 1544 1544 1542 1540 1538 1535 1533 1530 1527 1524 1522 1519 1517 1515 1513 1511 1509 1507 1505 1503 1502 1501 1501 1500 1500
1547 1550 1551 1551 1549 1550 1548 1543 1537 1535 1533 1528 1540 1538 1530 1538 1541 1542 1543 1543 1542 1541 1539 1536 1534 1531 1528 1525 1522 1520 1517 1514 1512 1510 1508 1506 1504 1502 1500 1498 1497 1496 1495 1495
1543 1545 1550 1551 1549 1549 1548 1545 1542 1537 1529 1526 1538 1533 1532 1542 1543 1543 1543 1543 1541 1539 1537 1535 1533 1530 1527 1524 1521 1518 1515 1512 1509 1507 1505 1503 1501 1499 1496 1495 1493 1492 1491 1490
1542 1544 1552 1552 1552 1550 1548 1547 1549 1547 1547 1543 1527 1531 1538 1542 1543 1543 1542 1541 1539 1538 1535 1533 1531 1528 1525 1522 1519 1516 1513 1510 1507 1505 1502 1500 1498 1495 1493 1491 1489 1488 1487 1486
1548 1548 1550 1552 1552 1553 1551 1550 1550 1546 1542 1532 1523 1524 1526 1538 1539 1541 1541 1539 1538 1536 1534 1531 1529 1526 1523 1520 1517 1514 1511 1508 1505 1503 1500 1497 1495 1492 1490 1488 1485 1484 1483 1482
1551 1548 1549 1550 1549 1548 1552 1552 1548 1545 1544 1536 1527 1523 1534 1536 1539 1540 1540 1539 1537 1535 1532 1529 1527 1524 1521 1518 1515 1512 1509 1506 1503 1500 1498 1495 1492 1489 1487 1484 1482 1480 1479 1478
1551 1549 1545 1547 1552 1552 1549 1548 1547 1545 1543 1543 1535 1531 1538 1539 1539 1539 1539 1537 1535 1533 1531 1528 1525 1522 1518 1515 1512 1509 1507 1504 1501 1498 1495 1491 1489 1486 1483 1481 1478 1476 1474 1473
1552 1550 1544 1540 1550 1553 1550 1550 1549 1548 1546 1542 1537 1530 1540 1539 1539 1538 1537 1536 1533 1531 1529 1526 1523 1520 1516 1513 1510 1507 1504 1501 1498 1495 1491 1488 1485 1482 1479 1476 1474 1472 1470 1469
1551 1549 1544 1536 1535 1543 1546 1548 1549 1548 1544 1536 1532 1528 1535 1537 1537 1536 1536 1534 1532 1529 1527 1524 1521 1518 1514 1511 1507 1504 1501 1498 1495 1491 1488 1484 1481 1478 1475 1473 1471 1468 1466 1464
1550 1547 1546 1545 1546 1547 1545 1544 1545 1545 1539 1536 1529 1532 1531 1534 1536 1535 1534 1532 1530 1527 1525 1522 1519 1515 1512 1508 1504 1501 1498 1494 1491 1488 1484 1481 1478 1475 1472 1469 1467 1464 1462 1460
1550 1548 1550 1548 1546 1547 1544 1540 1540 1541 1540 1537 1534 1533 1532 1534 1534 1533 1532 1530 1528 1526 1523 1520 1517 1513 1509 1506 1502 1498 1494 1491 1488 1484 1481 1478 1475 1471 1468 1465 1463 1460 1457 1456
1548 1549 1548 1540 1546 1545 1535 1534 1536 1537 1536 1536 1533 1532 1533 1533 1532 1531 1530 1528 1526 1524 1521 1518 1515 1511 1507 1503 1499 1495 1491 1488 1484 1481 1477 1474 1471 1467 1464 1461 1459 1456 1453 1451
1548 1547 1547 1543 1546 1541 1530 1536 1535 1536 1535 1536 1534 1533 1533 1533 1531 1530 1528 1526 1524 1522 1519 1515 1512 1508 1504 1500 1496 1492 1488 1484 1481 1477 1474 1470 1466 1463 1460 1457 1455 1452 1449 1447
1547 1547 1545 1544 1538 1528 1531 1535 1536 1536 1533 1533 1533 1532 1532 1531 1529 1527 1526 1524 1522 1520 1516 1513 1509 1505 1501 1497 1493 1489 1484 1481 1477 1474 1470 1466 1463 1459 1456 1453 1451 1448 1445 1443
1549 1548 1546 1545 1538 1527 1525 1535 1535 1537 1530 1530 1531 1530 1530 1530 1526 1524 1523 1521 1519 1516 1513 1509 1505 1501 1497 1493 1490 1485 1481 1477 1473 1470 1466 1462 1459 1456 1453 1450 1447 1444 1442 1439
1546 1546 1544 1540 1536 1524 1531 1534 1536 1532 1525 1528 1528 1528 1528 1528 1526 1524 1521 1518 1516 1513 1510 1506 1502 1498 1494 1490 1486 1481 1477 1474 1470 1466 1462 1458 1455 1452 1449 1446 1443 1440 1438 1435
1536 1537 1540 1538 1535 1527 1531 1532 1530 1526 1526 1526 1526 1526 1526 1524 1523 1520 1518 1515 1513 1509 1506 1503 1499 1495 1491 1487 1482 1478 1474 1470 1466 1462 1458 1454 1451 1448 1445 1442 1439 1436 1434 1431
1534 1531 1529 1530 1526 1526 1526 1525 1525 1525 1525 1524 1524 1524 1523 1521 1519 1517 1515 1512 1509 1506 1503 1499 1496 1491 1487 1484 1480 1475 1471 1467 1463 1458 1454 1451 1447 1444 1441 1438 1435 1432 1430 1428
1531 1532 1531 1529 1523 1524 1524 1523 1523 1523 1523 1522 1522 1521 1520 1518 1516 1514 1512 1509 1506 1503 1500 1496 1492 1488 1484 1481 1477 1473 1468 1464 1459 1455 1451 1447 1444 1440 1437 1434 1431 1429 1426 1424
1524 1528 1527 1524 1521 1521 1520 1520 1520 1520 1520 1519 1518 1518 1516 1515 1513 1511 1508 1506 1503 1500 1496 1493 1490 1486 1482 1478 1474 1470 1465 1461 1456 1452 1448 1444 1441 1437 1434 1430 1428 1425 1423 1422
1521 1522 1521 1516 1517 1518 1517 1517 1517 1517 1517 1516 1515 1514 1513 1512 1510 1508 1505 1503 1500 1497 1494 1490 1487 1483 1479 1475 1470 1466 1462 1458 1453 1449 1445 1441 1438 1434 1431 1427 1424 1421 1420 1418